Change the Weather History Date:

Sunday, April 6, 2014

  Actual Average Record
Temperature  
Mean Temperature 42 °F 43 °F  
Max Temperature 55 °F 57 °F 81 °F (1991)
Min Temperature 28 °F 29 °F 12 °F (1997)
Degree Days  
Heating Degree Days 23 22  
Month to date heating degree days 154 136  
Since 1 July heating degree days 7474 7022  
Cooling Degree Days 0 0  
Month to date cooling degree days 0 0  
Year to date cooling degree days 0 0  
Moisture  
Dew Point 31 °F    
Average Humidity 62    
Maximum Humidity 92    
Minimum Humidity 32    
Precipitation  
Precipitation 0.02 in 0.02 in 0.10 in (2006)
Month to date precipitation 0.05 0.10  
Year to date precipitation 0.83 0.98  
Sea Level Pressure  
Sea Level Pressure 29.97 in    
Wind  
Wind Speed 7 mph (SW)    
Max Wind Speed 26 mph    
Max Gust Speed 38 mph    
Visibility 10 miles    
Events Rain    
T = Trace of Precipitation, MM = Missing Value Source: NWS Daily Summary

Daily Weather History Graph

Daily Weather History Graph

Search for Another Location

Airport or City:

Trip Planner

Search our weather history database for the weather conditions in past years. The results will help you decide how hot, cold, wet, or windy it might be!

Date:

Astronomy

Apr. 06, 2014 Rise Set
Actual Time 6:44 AM MDT 7:44 PM MDT
Civil Twilight 6:14 AM MDT 8:14 PM MDT
Nautical Twilight 5:39 AM MDT 8:49 PM MDT
Astronomical Twilight 5:02 AM MDT 9:26 PM MDT
Moon 11:41 AM MDT (4/6) 1:49 AM MDT (4/6)
Length of Visible Light 13h 59m
Length of Day
13h 00m
Waxing Crescent, 44% of the Moon is Illuminated
Apr 6
Waxing Crescent
Apr 7
First Quarter
Apr 15
Full
Apr 22
Last Quarter
Apr 29
New

Hourly Weather History & Observations

Time (MDT) Temp. Windchill Dew Point Humidity Pressure Visibility Wind Dir Wind Speed Gust Speed Precip Events Conditions
12:53 AM 34.0 °F 28.8 °F 30.0 °F 85% 29.94 in 10.0 mi East 5.8 mph - N/A   Clear
1:53 AM 34.0 °F 28.8 °F 30.0 °F 85% 29.92 in 10.0 mi South 5.8 mph - N/A   Clear
2:53 AM 32.0 °F 25.6 °F 28.0 °F 85% 29.92 in 10.0 mi South 6.9 mph - N/A   Clear
3:53 AM 30.9 °F 24.3 °F 28.0 °F 89% 29.91 in 10.0 mi South 6.9 mph - N/A   Clear
4:53 AM 28.9 °F 21.9 °F 27.0 °F 92% 29.92 in 10.0 mi South 6.9 mph - N/A   Partly Cloudy
5:53 AM 30.0 °F 25.2 °F 27.0 °F 88% 29.93 in 10.0 mi SSE 4.6 mph - N/A   Clear
6:53 AM 28.9 °F 25.2 °F 27.0 °F 92% 29.96 in 10.0 mi SE 3.5 mph - N/A   Clear
7:53 AM 30.9 °F - 28.9 °F 92% 29.97 in 10.0 mi Calm Calm - N/A   Clear
8:53 AM 37.0 °F 33.3 °F 30.9 °F 79% 29.96 in 10.0 mi SW 4.6 mph - N/A   Scattered Clouds
9:53 AM 43.0 °F 40.3 °F 34.0 °F 71% 29.94 in 10.0 mi South 4.6 mph - N/A   Clear
10:53 AM 46.9 °F - 26.1 °F 44% 29.94 in 10.0 mi Variable 3.5 mph - N/A   Clear
11:53 AM 50.0 °F - 26.1 °F 39% 29.90 in 10.0 mi SW 5.8 mph - N/A   Clear
12:53 PM 53.1 °F - 24.1 °F 32% 29.89 in 10.0 mi NNE 11.5 mph - N/A   Mostly Cloudy
1:53 PM 51.1 °F - 27.0 °F 39% 29.89 in 10.0 mi West 4.6 mph - 0.00 in   Mostly Cloudy
2:53 PM 52.0 °F - 25.0 °F 35% 29.89 in 10.0 mi Calm Calm - N/A   Mostly Cloudy
3:53 PM 46.9 °F - 34.0 °F 61% 29.94 in 10.0 mi Variable 4.6 mph - 0.00 in   Overcast
4:53 PM 46.0 °F 38.8 °F 33.1 °F 61% 29.98 in 10.0 mi North 18.4 mph 26.5 mph 0.00 in Rain Light Rain
5:05 PM 46.9 °F - 33.1 °F 59% 29.93 in 10.0 mi NNE 20.7 mph 25.3 mph 0.00 in   Mostly Cloudy
5:53 PM 46.0 °F 42.5 °F 30.0 °F 54% 29.98 in 10.0 mi East 6.9 mph - 0.00 in   Clear
6:53 PM 46.9 °F - 30.0 °F 52% 29.97 in 10.0 mi SSE 4.6 mph - N/A   Mostly Cloudy
7:53 PM 41.0 °F 36.4 °F 32.0 °F 70% 30.01 in 10.0 mi SSE 6.9 mph - N/A   Overcast
8:53 PM 42.1 °F 35.2 °F 34.0 °F 73% 30.01 in 10.0 mi South 12.7 mph - 0.00 in   Overcast
9:53 PM 43.0 °F 38.2 °F 34.0 °F 71% 30.05 in 10.0 mi NW 8.1 mph - 0.01 in Rain Light Rain
10:03 PM 42.1 °F 37.1 °F 34.0 °F 73% 30.03 in 7.0 mi West 8.1 mph - 0.00 in Rain Light Rain
10:11 PM 42.1 °F 38.4 °F 34.0 °F 73% 30.03 in 10.0 mi West 5.8 mph - 0.00 in Rain Light Rain
10:53 PM 41.0 °F 36.4 °F 35.1 °F 79% 30.06 in 10.0 mi West 6.9 mph - 0.00 in   Overcast
11:19 PM 39.9 °F 29.2 °F 34.0 °F 79% 30.08 in 10.0 mi NNW 25.3 mph 33.4 mph 0.01 in Rain Light Rain
11:26 PM 39.0 °F 30.3 °F 34.0 °F 82% 30.08 in 10.0 mi North 16.1 mph 34.5 mph 0.01 in Rain Light Rain
11:35 PM 39.0 °F 30.6 °F 34.0 °F 82% 30.08 in 10.0 mi NNW 15.0 mph - 0.01 in   Overcast
11:53 PM 41.0 °F 33.1 °F 30.9 °F 67% 30.08 in 10.0 mi NNW 15.0 mph 28.8 mph 0.01 in Rain Light Rain